Regional Weather Roundup
Issued by NWS

Home | Current Version | Previous Version | Text Only | Print | Product List | Glossary On
Versions: 1 2 3 4 5 6 7 8 9 10 11 12 13 14 15 16 17 18 19 20 21 22 23 24 25 26 27 28 29 30 31 32 33 34 35 36 37 38 39 40 41 42 43 44 45 46 47 48 49 50
000
ASUS43 KOAX 060310
RWRNE

WEATHER ROUNDUP FOR NEBRASKA
NATIONAL WEATHER SERVICE OMAHA NE
1000 PM CDT TUE MAY 05 2015

NOTES: SATELLITE DATA IS BEING USED TO AUGMENT CLOUD COVER ABOVE
       12000 FEET.
       "FAIR" INDICATES FEW OR NO CLOUDS BELOW 12,000 FEET WITH NO
       SIGNIFICANT WEATHER AND/OR OBSTRUCTIONS TO VISIBILITY.

  * THESE STATIONS DO NOT REPORT WEATHER SUCH AS RAIN...SNOW OR FOG.

NEZ001>004-019>022-054>056-060400-
NEBRASKA PANHANDLE

CITY           SKY/WX    TMP DP  RH WIND       PRES   REMARKS
SCOTTSBLUFF    LGT RAIN  54  54 100 SE14      29.83S
ALLIANCE       LGT RAIN  54  51  90 MISG      29.84F
CHADRON        CLOUDY    57  50  77 SE9       29.84S
KIMBALL        HVY RAIN  50  50  99 E14       29.80F
SIDNEY         LGT RAIN  52  50  93 SE22G31   29.81F
$$

NEZ057>060-069>072-079>082-060400-
SOUTHWEST NEBRASKA

CITY           SKY/WX    TMP DP  RH WIND       PRES   REMARKS
NORTH PLATTE   CLOUDY    55  53  93 E12       29.87F
IMPERIAL       LGT RAIN  54  53  97 SE18G26   29.81S
LEXINGTON      LGT RAIN  58  55  92 SE15      29.90S
MCCOOK         LGT RAIN  58  56  93 E16       29.82F FOG
OGALLALA       DRIZZLE   54  52  94 E14G21    29.84S
$$

NEZ005>010-023>029-035>040-094-060400-
NORTH CENTRAL NEBRASKA

CITY           SKY/WX    TMP DP  RH WIND       PRES   REMARKS
VALENTINE      CLOUDY    56  54  93 E7        29.90S
AINSWORTH      CLOUDY    57  57  99 NE6       29.91S
BROKEN BOW     LGT RAIN  59  54  83 SE6       29.90F
O`NEILL        CLOUDY    68  55  64 SE12      29.93R
ORD            LGT RAIN  64  51  62 SE12      29.91R
THEDFORD       LGT RAIN  58  55  90 SE13G18   29.91R
$$

NEZ041-046>049-061>064-073>077-083>087-060400-
SOUTH CENTRAL NEBRASKA

CITY           SKY/WX    TMP DP  RH WIND       PRES   REMARKS
GRAND ISLAND   CLOUDY    63  56  78 S10       29.94R
AURORA         LGT RAIN  64  58  83 S10G22    29.94R
HASTINGS       LGT RAIN  60  55  83 S10G21    29.93R
HEBRON         LGT RAIN  65  54  66 S9        29.94S
HOLDREGE       LGT RAIN  56  55  94 SE14      29.90S
KEARNEY *      CLOUDY    57  54  88 SE15      29.92S
YORK           LGT RAIN  64  59  82 SE13      29.94S
$$

NEZ011>018-030>034-042>045-060400-
NORTHEAST NEBRASKA

CITY           SKY/WX    TMP DP  RH WIND       PRES   REMARKS
NORFOLK        CLOUDY    68  57  68 SE13      29.95R
ALBION         CLOUDY    65  56  71 SE9       29.93S
BLAIR          CLOUDY    69  58  67 SE10      29.98R
COLUMBUS *     CLOUDY    66  55  68 E9        29.96S
FREMONT        CLOUDY    70  58  66 E10       29.97R
TEKAMAH        CLOUDY    68  60  75 SE10      29.97R
WAYNE          CLOUDY    66  59  79 SE9       29.97S
$$

NEZ050>053-065>068-078-088>093-060400-
SOUTHEAST NEBRASKA

CITY           SKY/WX    TMP DP  RH WIND       PRES   REMARKS
LINCOLN        LGT RAIN  67  59  75 SE8       29.95S
OMAHA EPPLEY   CLOUDY    72  58  61 SE15      29.98R
BEATRICE       LGT RAIN  67  60  79 SE9       29.95S
FALLS CITY     CLOUDY    64  60  87 SE8       30.01R
NEBRASKA CITY  LGT RAIN  65  57  74 SE14      30.00R
PLATTSMOUTH    CLOUDY    70  58  64 SE22G31   29.99R
$$

NEZ044-045-051>053-067-060400-
OMAHA AREA

CITY           SKY/WX    TMP DP  RH WIND       PRES   REMARKS
OMAHA EPPLEY   CLOUDY    72  58  61 SE15      29.98R
BLAIR          CLOUDY    69  58  67 SE10      29.98R
FREMONT        CLOUDY    70  58  66 E10       29.97R
MILLARD        CLOUDY    72  60  66 SE8G16    29.97R
OFFUTT AFB     CLOUDY    71  58  64 E16       29.97S
PLATTSMOUTH    CLOUDY    70  58  64 SE22G31   29.99R
$$


USA.gov is the U.S. government's official web portal to all federal, state and local government web resources and services.